FW9769 Weather Reports


time (UTC)temp
C
wind
direction
speed
KPH
gust
KPH
rain 1hr
cm
rain 24hr
cm
rain mn
cm
humidity
%
barometer
mb
20260507160027 12 294 1.6 8.0 0.00 0.00 0.00 43 1016.4
20260507155522 12 314 3.2 8.0 0.00 0.00 0.00 44 1016.3
20260507155020 12 0 4.8 6.4 0.00 0.00 0.00 43 1016.5
20260507154516 13 249 3.2 6.4 0.00 0.00 0.00 43 1016.3
20260507154014 12 123 3.2 16.1 0.00 0.00 0.00 42 1016.4
20260507153510 12 321 6.4 8.0 0.00 0.00 0.00 46 1016.2
20260507153006 13 326 4.8 9.7 0.00 0.00 0.00 50 1016.1
20260507152502 11 197 0.0 6.4 0.00 0.00 0.00 46 1016.2
20260507151959 12 26 3.2 8.0 0.00 0.00 0.00 46 1016.3
20260507151455 12 268 4.8 6.4 0.00 0.00 0.00 50 1016.4
20260507150952 11 212 0.0 3.2 0.00 0.00 0.00 48 1016.1
20260507150449 11 205 3.2 14.5 0.00 0.00 0.00 46 1016.3
20260507145945 11 221 4.8 9.7 0.00 0.00 0.00 48 1016.1
20260507145441 12 274 4.8 6.4 0.00 0.00 0.00 46 1016.1
20260507144938 12 321 8.0 8.0 0.00 0.00 0.00 50 1016.1
20260507144435 12 195 4.8 6.4 0.00 0.00 0.00 48 1016.2
20260507143932 12 227 1.6 4.8 0.00 0.00 0.00 46 1016.1
20260507143430 12 161 1.6 4.8 0.00 0.00 0.00 47 1016.3
20260507142926 11 208 3.2 8.0 0.00 0.00 0.00 47 1016.2
20260507142422 11 238 3.2 8.0 0.00 0.00 0.00 46 1016.1
20260507141919 11 259 0.0 3.2 0.00 0.00 0.00 50 1016.1
20260507141415 12 302 3.2 6.4 0.00 0.00 0.00 51 1016.4
20260507140912 12 60 1.6 4.8 0.00 0.00 0.00 50 1016.2
20260507140408 12 325 3.2 3.2 0.00 0.00 0.00 48 1016.2
20260507135907 11 204 0.0 6.4 0.00 0.00 0.00 51 1016.3
20260507135403 11 136 1.6 4.8 0.00 0.00 0.00 54 1016.3
20260507134901 10 118 3.2 4.8 0.00 0.00 0.00 58 1016.2
20260507134356 10 218 0.0 3.2 0.00 0.00 0.00 58 1016.3
20260507133853 10 264 0.0 1.6 0.00 0.00 0.00 64 1016.3
20260507133348 9 238 0.0 6.4 0.00 0.00 0.00 58 1016.2
20260507132847 10 289 3.2 3.2 0.00 0.00 0.00 59 1016.3
20260507132343 10 63 0.0 8.0 0.00 0.00 0.00 59 1016.2
20260507131840 11 161 0.0 6.4 0.00 0.00 0.00 55 1016.1
20260507131337 11 83 1.6 3.2 0.00 0.00 0.00 60 1016.1
20260507130834 11 207 0.0 4.8 0.00 0.00 0.00 66 1016.3
20260507130331 10 357 0.0 4.8 0.00 0.00 0.00 64 1016.0
20260507125830 10 21 1.6 3.2 0.00 0.00 0.00 62 1016.2
20260507125327 10 195 1.6 3.2 0.00 0.00 0.00 73 1016.2
20260507124824 10 157 1.6 1.6 0.00 0.00 0.00 76 1016.1
20260507124320 10 355 0.0 1.6 0.00 0.00 0.00 76 1016.0
20260507123819 10 86 3.2 3.2 0.00 0.00 0.00 64 1016.1
20260507123316 9 122 0.0 1.6 0.00 0.00 0.00 74 1016.3
20260507122812 8 102 0.0 1.6 0.00 0.00 0.00 81 1016.2
20260507122308 7 52 0.0 3.2 0.00 0.00 0.00 86 1016.0
20260507121804 7 249 0.0 3.2 0.00 0.00 0.00 85 1016.2
20260507121300 7 160 3.2 3.2 0.00 0.00 0.00 86 1016.1
20260507120756 8 187 0.0 3.2 0.00 0.00 0.00 83 1016.1
20260507120253 7 135 0.0 0.0 0.00 0.00 0.00 88 1016.2
20260507115749 6 55 0.0 0.0 0.00 0.00 0.00 96 1016.0
20260507115245 5 135 0.0 0.0 0.00 0.00 0.00 98 1016.1
20260507114741 4 293 0.0 3.2 0.00 0.00 0.00 99 1016.2
20260507114238 4 48 0.0 1.6 0.00 0.00 0.00 99 1016.0
20260507113736 3 21 0.0 3.2 0.00 0.00 0.00 99 1016.0
20260507113232 3 135 1.6 3.2 0.00 0.00 0.00 99 1016.1
20260507112730 3 202 0.0 1.6 0.00 0.00 0.00 99 1016.2
20260507112227 2 97 0.0 1.6 0.00 0.00 0.00 99 1016.1
20260507111724 2 304 0.0 1.6 0.00 0.00 0.00 99 1016.2
20260507111221 2 132 1.6 1.6 0.00 0.00 0.00 99 1016.0
20260507110717 2 103 0.0 1.6 0.00 0.00 0.00 99 1016.0
20260507110214 2 103 0.0 0.0 0.00 0.00 0.00 99 1015.9
20260507105711 2 42 0.0 1.6 0.00 0.00 0.00 99 1015.7
20260507105206 2 212 0.0 1.6 0.00 0.00 0.00 99 1015.8
20260507104704 2 117 0.0 1.6 0.00 0.00 0.00 99 1015.7
20260507104200 2 104 0.0 1.6 0.00 0.00 0.00 99 1015.7
20260507103656 2 203 0.0 1.6 0.00 0.00 0.00 99 1015.6
20260507103153 2 191 0.0 1.6 0.00 0.00 0.00 99 1015.8
20260507102649 2 157 0.0 1.6 0.00 0.00 0.00 99 1015.5
20260507102146 2 127 1.6 3.2 0.00 0.00 0.00 99 1015.5
20260507101642 3 160 1.6 3.2 0.00 0.00 0.00 99 1015.5
20260507101138 3 13 0.0 1.6 0.00 0.00 0.00 99 1015.3
20260507100635 3 152 0.0 1.6 0.00 0.00 0.00 99 1015.5
20260507100133 3 105 0.0 3.2 0.00 0.00 0.00 99 1015.6
20260507095631 3 132 0.0 3.2 0.00 0.00 0.00 99 1015.5
20260507095127 3 140 0.0 3.2 0.00 0.00 0.00 99 1015.5
20260507094624 3 39 1.6 3.2 0.00 0.00 0.00 99 1015.6
20260507094121 3 135 0.0 0.0 0.00 0.00 0.00 99 1015.5
20260507093618 3 150 0.0 1.6 0.00 0.00 0.00 99 1015.6
20260507093117 3 147 0.0 1.6 0.00 0.00 0.00 99 1015.5
20260507092613 3 135 0.0 1.6 0.00 0.00 0.00 99 1015.6
20260507092109 3 66 0.0 0.0 0.00 0.00 0.00 99 1015.5
20260507091606 3 28 0.0 0.0 0.00 0.00 0.00 99 1015.6
20260507091102 3 53 0.0 0.0 0.00 0.00 0.00 99 1015.5
20260507090558 3 32 0.0 0.0 0.00 0.00 0.00 99 1015.4
20260507090055 3 22 0.0 0.0 0.00 0.00 0.00 99 1015.5
20260507085552 3 127 0.0 1.6 0.00 0.00 0.00 99 1015.4
20260507085049 3 166 0.0 0.0 0.00 0.00 0.00 99 1015.5
20260507084545 3 34 0.0 0.0 0.00 0.00 0.00 99 1015.2
20260507084043 3 44 0.0 0.0 0.00 0.00 0.00 99 1015.3
20260507083539 3 120 0.0 0.0 0.00 0.00 0.00 99 1015.1
20260507083036 4 123 1.6 3.2 0.00 0.00 0.00 99 1015.2
20260507082532 4 130 0.0 0.0 0.00 0.00 0.00 99 1015.1
20260507082028 4 89 0.0 0.0 0.00 0.00 0.00 99 1015.1
20260507081525 4 135 0.0 0.0 0.00 0.00 0.00 99 1015.1
20260507081022 4 114 0.0 0.0 0.00 0.00 0.00 99 1015.1
20260507080518 4 55 0.0 0.0 0.00 0.00 0.00 99 1015.1
20260507080014 5 36 0.0 1.6 0.00 0.00 0.00 99 1015.2
20260507075509 5 113 0.0 1.6 0.00 0.00 0.00 99 1015.0
20260507075006 5 60 0.0 1.6 0.00 0.00 0.00 99 1015.1
20260507074503 5 37 0.0 1.6 0.00 0.00 0.00 99 1015.2
20260507074002 5 81 0.0 1.6 0.00 0.00 0.00 99 1015.1
20260507073457 5 69 0.0 1.6 0.00 0.00 0.00 99 1015.2
20260507072954 5 103 0.0 1.6 0.00 0.00 0.00 99 1015.3
20260507072452 5 55 0.0 0.0 0.00 0.00 0.00 99 1015.2
20260507071949 5 76 0.0 0.0 0.00 0.00 0.00 99 1015.2
20260507071446 5 103 0.0 0.0 0.00 0.00 0.00 99 1015.1
20260507070942 5 135 0.0 0.0 0.00 0.00 0.00 99 1015.1
20260507070440 5 89 0.0 1.6 0.00 0.00 0.00 99 1015.2
20260507065936 5 87 0.0 1.6 0.00 0.00 0.00 99 1015.3
20260507065433 5 76 0.0 0.0 0.00 0.00 0.00 99 1015.3
20260507064930 5 124 0.0 0.0 0.00 0.00 0.00 99 1015.3
20260507064428 5 60 0.0 1.6 0.00 0.00 0.00 99 1015.2
20260507063926 5 113 0.0 0.0 0.00 0.00 0.00 99 1015.4
20260507063423 5 130 0.0 0.0 0.00 0.00 0.00 99 1015.4
20260507062920 5 89 0.0 0.0 0.00 0.00 0.00 99 1015.3
20260507062417 5 89 0.0 0.0 0.00 0.00 0.00 98 1015.3
20260507061914 5 55 0.0 0.0 0.00 0.00 0.00 98 1015.5
20260507061412 5 113 0.0 0.0 0.00 0.00 0.00 98 1015.5
20260507060911 5 44 0.0 0.0 0.00 0.00 0.00 98 1015.4
20260507060407 5 113 0.0 0.0 0.00 0.00 0.00 98 1015.5
20260507055904 5 130 0.0 0.0 0.00 0.00 0.00 98 1015.5
20260507055358 5 52 0.0 0.0 0.00 0.00 0.00 98 1015.3
20260507054856 5 55 0.0 0.0 0.00 0.00 0.00 98 1015.5
20260507054352 5 113 0.0 0.0 0.00 0.00 0.00 97 1015.3
20260507053849 5 102 0.0 1.6 0.00 0.00 0.00 97 1015.1
20260507053347 5 126 0.0 1.6 0.00 0.00 0.00 97 1015.2
20260507052846 5 113 0.0 1.6 0.00 0.00 0.00 97 1015.4
20260507052342 5 76 0.0 1.6 0.00 0.00 0.00 97 1015.4
20260507051839 5 89 0.0 1.6 0.00 0.00 0.00 97 1015.4
20260507051337 5 53 0.0 1.6 0.00 0.00 0.00 97 1015.4
20260507050834 6 76 0.0 1.6 0.00 0.00 0.00 97 1015.5
20260507050330 6 99 1.6 1.6 0.00 0.00 0.00 97 1015.5
20260507045827 6 44 0.0 0.0 0.00 0.00 0.00 97 1015.5
20260507045324 6 130 0.0 0.0 0.00 0.00 0.00 97 1015.8
20260507044821 6 113 0.0 1.6 0.00 0.00 0.00 97 1015.8
20260507044317 6 102 0.0 0.0 0.00 0.00 0.00 97 1015.7
20260507043813 6 89 0.0 1.6 0.00 0.00 0.00 97 1015.5
20260507043310 6 104 0.0 1.6 0.00 0.00 0.00 97 1015.4
20260507042806 6 110 0.0 0.0 0.00 0.00 0.00 97 1015.4
20260507042302 6 113 0.0 0.0 0.00 0.00 0.00 97 1015.3
20260507041759 6 122 0.0 1.6 0.00 0.00 0.00 97 1015.4
20260507041255 6 109 0.0 3.2 0.00 0.00 0.00 97 1015.3
20260507040753 6 116 0.0 3.2 0.00 0.00 0.00 97 1015.4
20260507040249 6 154 0.0 1.6 0.00 0.00 0.00 97 1015.4
20260507035745 6 133 0.0 0.0 0.00 1.04 1.04 96 1015.3
20260507035240 6 119 0.0 0.0 0.00 1.04 1.04 96 1015.2
20260507034738 6 55 0.0 0.0 0.00 1.04 1.04 96 1015.4
20260507034235 6 125 0.0 1.6 0.00 1.04 1.04 96 1015.3
20260507033733 6 135 0.0 3.2 0.00 1.04 1.04 96 1015.3
20260507033230 7 76 0.0 0.0 0.00 1.04 1.04 96 1015.3
20260507032728 7 135 0.0 1.6 0.00 1.04 1.04 95 1015.2
20260507032223 7 107 0.0 1.6 0.00 1.04 1.04 95 1015.3
20260507031720 7 113 0.0 0.0 0.00 1.04 1.04 95 1015.4
20260507031217 7 32 0.0 0.0 0.00 1.04 1.04 95 1015.3
20260507030714 7 124 0.0 0.0 0.00 1.04 1.04 95 1015.2
20260507030212 7 118 0.0 0.0 0.00 1.04 1.04 95 1015.4
20260507025708 7 119 0.0 1.6 0.00 1.04 1.04 95 1015.3
20260507025206 7 55 0.0 0.0 0.00 1.04 1.04 95 1015.4
20260507024704 7 119 0.0 1.6 0.00 1.04 1.04 95 1015.5
20260507024200 7 126 0.0 0.0 0.00 1.04 1.04 94 1015.5
20260507023656 7 119 0.0 1.6 0.00 1.04 1.04 94 1015.3
20260507023153 7 124 0.0 0.0 0.00 1.04 1.04 94 1015.5
20260507022650 7 160 0.0 0.0 0.00 1.04 1.04 93 1015.4
20260507022146 7 55 0.0 0.0 0.00 1.04 1.04 93 1015.5
20260507021643 7 113 0.0 0.0 0.00 1.04 1.04 93 1015.3
20260507021138 7 55 0.0 0.0 0.00 1.04 1.04 92 1015.3
20260507020637 7 89 0.0 0.0 0.00 1.04 1.04 92 1015.2
20260507020132 8 77 0.0 0.0 0.00 1.04 1.04 92 1015.0
20260507015631 8 77 0.0 0.0 0.00 1.04 1.04 91 1015.2
20260507015128 8 141 0.0 0.0 0.00 1.04 1.04 91 1014.9
20260507014624 8 112 0.0 1.6 0.00 1.04 1.04 90 1015.0
20260507014120 8 116 0.0 1.6 0.00 1.04 1.04 88 1014.9
20260507013617 8 127 1.6 1.6 0.00 1.04 1.04 87 1014.8
20260507013114 8 63 0.0 0.0 0.00 1.04 1.04 86 1014.7
20260507012612 9 119 0.0 1.6 0.00 1.04 1.04 85 1014.9
20260507012107 9 135 0.0 0.0 0.00 1.04 1.04 84 1014.7
20260507011606 10 105 0.0 0.0 0.00 1.04 1.04 84 1014.7
20260507011101 10 124 0.0 1.6 0.00 1.04 1.04 85 1014.5
20260507010556 10 147 0.0 1.6 0.00 1.04 1.04 85 1014.7
20260507010052 10 139 0.0 1.6 0.00 1.04 1.04 83 1014.6
20260507005550 10 143 1.6 1.6 0.00 1.04 1.04 83 1014.6
20260507005046 10 113 0.0 1.6 0.00 1.04 1.04 83 1014.8
20260507004543 10 103 0.0 1.6 0.00 1.04 1.04 82 1014.7
20260507004041 10 127 0.0 3.2 0.00 1.04 1.04 82 1014.7
20260507003536 10 146 0.0 1.6 0.00 1.04 1.04 80 1014.7
20260507003031 10 106 0.0 0.0 0.00 1.04 1.04 80 1014.5
20260507002528 10 124 0.0 1.6 0.00 1.04 1.04 78 1014.3
20260507002024 11 105 1.6 3.2 0.00 1.04 1.04 75 1014.1
20260507001521 11 113 0.0 1.6 0.00 1.04 1.04 76 1014.1
20260507001019 11 127 0.0 3.2 0.00 1.04 1.04 75 1014.2
20260507000514 11 154 0.0 0.0 0.00 1.04 1.04 79 1014.1
20260507000010 12 103 0.0 1.6 0.00 1.04 1.04 72 1014.1
20260506235508 12 153 1.6 3.2 0.00 1.04 1.04 70 1014.2
20260506235003 12 151 0.0 1.6 0.00 1.04 1.04 72 1014.2
20260506234501 12 141 1.6 3.2 0.00 1.04 1.04 69 1014.2
20260506233958 12 201 0.0 3.2 0.00 1.04 1.04 66 1014.1
20260506233455 12 129 0.0 0.0 0.00 1.04 1.04 69 1014.2
20260506232951 12 54 0.0 3.2 0.00 1.04 1.04 62 1014.0
20260506232448 12 302 0.0 4.8 0.00 1.04 1.04 63 1013.9
20260506231943 12 135 0.0 0.0 0.00 1.04 1.04 69 1013.9
20260506231441 12 215 0.0 3.2 0.00 1.04 1.04 62 1013.8
20260506230938 12 186 0.0 1.6 0.00 1.04 1.04 71 1014.1
20260506230434 12 294 0.0 1.6 0.00 1.04 1.04 61 1014.1
20260506225931 12 47 0.0 4.8 0.00 1.04 1.04 57 1014.1
20260506225428 12 205 0.0 3.2 0.00 1.04 1.04 63 1014.1
20260506224925 12 325 0.0 3.2 0.00 1.04 1.04 58 1014.1
20260506224423 13 173 0.0 4.8 0.00 1.04 1.04 57 1014.1
20260506223919 13 145 3.2 3.2 0.00 1.04 1.04 57 1014.2
20260506223414 13 92 1.6 3.2 0.00 1.04 1.04 59 1014.3
20260506222912 13 59 1.6 6.4 0.00 1.04 1.04 60 1014.3
20260506222408 13 229 0.0 4.8 0.00 1.04 1.04 56 1014.5
20260506221906 13 219 0.0 3.2 0.00 1.04 1.04 58 1014.6
20260506221402 13 218 1.6 4.8 0.00 1.04 1.04 54 1014.4
20260506220900 13 349 3.2 6.4 0.00 1.04 1.04 56 1014.3
20260506220355 13 154 0.0 1.6 0.00 1.04 1.04 61 1014.5
20260506215852 13 158 0.0 3.2 0.00 1.04 1.04 57 1014.5
20260506215348 13 44 0.0 3.2 0.00 1.04 1.04 59 1014.5
20260506214844 13 159 3.2 3.2 0.00 1.04 1.04 61 1014.5
20260506214341 13 173 0.0 3.2 0.00 1.04 1.04 52 1014.1
20260506213839 13 74 3.2 6.4 0.00 1.04 1.04 55 1014.1
20260506213336 13 162 3.2 3.2 0.00 1.04 1.04 57 1014.2
20260506212833 13 224 0.0 6.4 0.00 1.04 1.04 56 1014.1
20260506212329 13 61 1.6 3.2 0.00 1.04 1.04 57 1014.1
20260506211824 13 40 1.6 3.2 0.00 1.04 1.04 58 1014.1
20260506211320 13 216 1.6 3.2 0.00 1.04 1.04 59 1014.1
20260506210818 13 193 0.0 8.0 0.00 1.04 1.04 55 1014.1
20260506210315 13 173 0.0 1.6 0.00 1.04 1.04 60 1013.9
20260506205812 13 203 0.0 4.8 0.00 1.04 1.04 54 1013.9
20260506205308 13 27 3.2 8.0 0.00 1.04 1.04 55 1014.2
20260506204804 13 313 3.2 3.2 0.00 1.04 1.04 63 1013.9
20260506204302 13 50 0.0 1.6 0.00 1.04 1.04 56 1014.1
20260506203759 13 192 1.6 3.2 0.00 1.04 1.04 57 1014.2
20260506203257 13 123 1.6 3.2 0.00 1.04 1.04 54 1014.0
20260506202754 13 200 1.6 3.2 0.00 1.04 1.04 61 1013.9
20260506202251 13 134 0.0 3.2 0.00 1.04 1.04 62 1014.0
20260506201747 13 146 1.6 3.2 0.00 1.04 1.04 55 1014.0
20260506201244 13 168 0.0 3.2 0.00 1.04 1.04 54 1014.1
20260506200741 13 281 3.2 6.4 0.00 1.04 1.04 55 1013.9
20260506200237 13 260 0.0 3.2 0.00 1.04 1.04 58 1014.1
20260506195733 13 193 0.0 3.2 0.00 1.04 1.04 56 1013.8
20260506195230 13 237 0.0 3.2 0.00 1.04 1.04 57 1013.9
20260506194727 13 226 1.6 3.2 0.00 1.04 1.04 56 1013.9
20260506194224 13 206 0.0 3.2 0.00 1.04 1.04 60 1014.0
20260506193722 13 256 0.0 3.2 0.00 1.04 1.04 56 1013.9
20260506193219 13 272 0.0 3.2 0.00 1.04 1.04 59 1013.9
20260506192715 13 195 3.2 6.4 0.00 1.04 1.04 54 1013.8
20260506192212 13 193 1.6 4.8 0.00 1.04 1.04 54 1013.9
20260506191709 13 204 3.2 6.4 0.00 1.04 1.04 58 1013.8
20260506191204 13 302 3.2 8.0 0.00 1.04 1.04 57 1013.6
20260506190702 13 174 0.0 3.2 0.00 1.04 1.04 67 1013.6
20260506190158 13 287 1.6 4.8 0.00 1.04 1.04 58 1013.8
20260506185656 13 199 3.2 6.4 0.00 1.04 1.04 58 1013.8
20260506185152 13 321 3.2 6.4 0.00 1.04 1.04 54 1013.9
20260506184650 13 297 0.0 3.2 0.00 1.04 1.04 56 1013.8
20260506184147 13 226 0.0 6.4 0.00 1.04 1.04 54 1013.8
20260506183643 13 246 1.6 6.4 0.00 1.04 1.04 62 1013.8
20260506183139 13 162 0.0 3.2 0.00 1.04 1.04 58 1014.0
20260506182637 13 162 1.6 3.2 0.00 1.04 1.04 56 1014.0
20260506182134 13 188 3.2 4.8 0.00 1.04 1.04 60 1013.7
20260506181632 13 227 3.2 6.4 0.00 1.04 1.04 54 1013.8
20260506181129 14 309 1.6 6.4 0.00 1.04 1.04 51 1013.5
20260506180626 14 182 3.2 8.0 0.00 1.04 1.04 54 1013.6
20260506180122 15 144 3.2 6.4 0.00 1.04 1.04 53 1013.6
20260506175618 14 142 1.6 3.2 0.00 1.04 1.04 56 1013.9
20260506175114 13 320 4.8 6.4 0.00 1.04 1.04 58 1014.1
20260506174614 13 345 4.8 6.4 0.00 1.04 1.04 57 1014.1
20260506174109 14 193 3.2 4.8 0.00 1.04 1.04 59 1014.1
20260506173607 13 131 1.6 4.8 0.00 1.04 1.04 56 1014.1
20260506173104 13 43 1.6 6.4 0.00 1.04 1.04 56 1014.3
20260506172601 13 261 3.2 8.0 0.00 1.04 1.04 55 1014.1
20260506172057 13 321 1.6 8.0 0.00 1.04 1.04 56 1013.9
20260506171555 13 254 1.6 6.4 0.00 1.04 1.04 55 1014.1
20260506171052 13 142 0.0 8.0 0.00 1.04 1.04 58 1014.0
20260506170549 13 214 6.4 6.4 0.00 1.04 1.04 65 1014.1
20260506170047 13 267 4.8 11.3 0.00 1.04 1.04 55 1014.1
20260506165545 13 256 0.0 6.4 0.00 1.04 1.04 56 1014.3
20260506165041 13 223 6.4 8.0 0.00 1.04 1.04 55 1014.2
20260506164538 13 221 1.6 6.4 0.00 1.04 1.04 70 1014.1
20260506164036 13 37 0.0 6.4 0.00 1.04 1.04 59 1014.1
20260506163531 13 254 4.8 6.4 0.00 1.04 1.04 61 1014.3
20260506163027 13 258 1.6 6.4 0.00 1.04 1.04 56 1013.9
20260506162524 12 199 1.6 4.8 0.00 1.04 1.04 62 1013.8
20260506162021 13 232 1.6 6.4 0.00 1.04 1.04 56 1013.9
20260506161519 13 128 3.2 4.8 0.00 1.04 1.04 56 1013.8
20260506161015 13 243 0.0 3.2 0.00 1.04 1.04 61 1014.0
20260506160513 13 265 0.0 4.8 0.00 1.04 1.04 64 1014.0